This demonstration page uses our WeatherBlox Daily Observations layout. Learn more.

Left ArrowRight Arrow

44.8408, -93.29828

Hourly Observations for March 1, 2017

Temp ( °F °C ) Dew Point ( °F °C ) Humidity (%) Winds ( mph kmh ) Pressure ( in mb ) Visibility ( mi km ) Precip ( " mm )
12:33 am 00:33 Cloudy 31 -0.6 24 -4.4 76 76 NNE 12 19 29.77 1008 10 16 0.00 0.00
12:53 am 00:53 Cloudy 31 -0.6 24 -4.4 76 76 NNE 12 19 29.73 1007 10 16 0.00 0.00
1:53 am 01:53 Cloudy 31 -0.6 23 -5 72 72 N 14 22 29.75 1007 10 16 0.00 0.00
2:46 am 02:46 Cloudy 29 -1.7 24 -4.4 82 82 N 14 22 29.77 1008 8 13 0.00 0.00
2:53 am 02:53 Cloudy 29 -1.7 24 -4.4 82 82 N 14 22 29.73 1007 9 14 0.00 0.00
3:53 am 03:53 Cloudy 29 -1.7 23 -5 78 78 N 13 20 29.75 1008 10 16 0.00 0.00
4:12 am 04:12 Cloudy 28 -2 21 -6 74 74 N 14 22 29.80 1009 9 14 0.00 0.00
4:53 am 04:53 Cloudy with Light Snow 28 -2.2 22 -5.6 78 78 NNW 17 28 29.78 1009 4 6 0.00 0.03
5:09 am 05:09 Cloudy with Light Snow 27 -2.8 23 -5 85 85 N 17 28 29.83 1010 2 3 0.00 0.03
5:16 am 05:16 Cloudy with Light Snow 27 -2.8 23 -5 85 85 N 14 22 29.83 1010 1 2 0.01 0.25
5:24 am 05:24 Cloudy with Light Snow 27 -2.8 23 -5 85 85 N 17 28 29.83 1010 1 1 0.02 0.51
5:38 am 05:38 Mostly Cloudy with Light Snow 27 -3 23 -5 86 86 N 15 24 29.83 1010 1 1 0.00 0.00
5:53 am 05:53 Mostly Cloudy with Light Snow 26 -3.3 23 -5 88 88 N 15 24 29.81 1009 1 1 0.04 1.02
6:14 am 06:14 Mostly Cloudy with Light Snow 27 -3 23 -5 86 86 N 15 24 29.83 1010 1 2 0.00 0.00
6:24 am 06:24 Cloudy with Light Snow 26 -3.3 23 -5 88 88 N 13 20 29.85 1011 2 2 0.00 0.03
6:29 am 06:29 Cloudy with Light Snow 26 -3.3 23 -5 88 88 N 14 22 29.85 1011 3 5 0.00 0.03
6:40 am 06:40 Cloudy with Light Snow 26 -3.3 22 -5.6 84 84 N 15 24 29.85 1011 5 8 0.00 0.03
6:53 am 06:53 Cloudy with Haze 26 -3.3 21 -6.1 81 81 N 13 20 29.82 1010 6 10 0.00 0.03
7:23 am 07:23 Cloudy 26 -3.3 21 -6.1 81 81 N 16 26 29.85 1011 9 14 0.00 0.00
7:38 am 07:38 Cloudy 27 -2.8 21 -6.1 78 78 N 12 19 29.85 1011 9 14 0.00 0.00
7:53 am 07:53 Cloudy 27 -2.8 21 -6.1 78 78 N 14 22 29.84 1011 9 14 0.00 0.00
8:53 am 08:53 Cloudy 28 -2.2 21 -6.1 75 75 NNW 14 22 29.87 1011 10 16 0.00 0.00
9:39 am 09:39 Mostly Cloudy 27 -2.8 20 -6.7 75 75 N 13 20 29.91 1013 10 16 0.00 0.00
9:53 am 09:53 Mostly Cloudy 27 -2.8 19 -7.2 72 72 NNW 14 22 29.90 1012 10 16 0.00 0.00
10:12 am 10:12 Mostly Cloudy 28 -2 19 -7 69 69 N 15 24 29.94 1014 10 16 0.00 0.00
10:53 am 10:53 Mostly Cloudy 30 -1.1 21 -6.1 69 69 NNW 16 26 29.91 1013 10 16 0.00 0.00
11:53 am 11:53 Mostly Cloudy 33 0.6 22 -5.6 64 64 N 15 24 29.92 1013 10 16 0.00 0.00
12:51 pm 12:51 Mostly Cloudy 36 2 21 -6 56 56 NW 14 22 29.97 1015 10 16 0.00 0.00
12:53 pm 12:53 Mostly Cloudy 35 1.7 23 -5 61 61 NNW 15 24 29.93 1014 10 16 0.00 0.00
1:53 pm 13:53 Mostly Cloudy 35 1.7 22 -5.6 59 59 NW 15 24 29.94 1014 10 16 0.00 0.00
2:53 pm 14:53 Mostly Cloudy 35 1.7 21 -6.1 57 57 NW 15 24 29.97 1015 10 16 0.00 0.00
3:53 pm 15:53 Mostly Cloudy 36 2.2 20 -6.7 52 52 NW 14 22 29.98 1015 10 16 0.00 0.00
4:53 pm 16:53 Cloudy 35 1.7 21 -6.1 57 57 WNW 17 28 30.00 1016 10 16 0.00 0.00
5:08 pm 17:08 Cloudy with Light Snow 34 1 23 -5 65 65 WNW 18 30 30.03 1017 3 4 0.00 0.00
5:29 pm 17:29 Cloudy with Light Snow 31 -0.6 26 -3.3 82 82 WNW 12 19 30.03 1017 3 4 0.00 0.03
5:35 pm 17:35 Cloudy with Light Snow 31 -0.6 26 -3.3 82 82 WNW 12 19 30.03 1017 4 6 0.00 0.03
5:45 pm 17:45 Cloudy with Light Snow 31 -0.6 25 -3.9 79 79 WNW 12 19 30.03 1017 5 8 0.00 0.03
5:53 pm 17:53 Cloudy 37 3 30 -1 75 75 N 18 30 29.71 1006 10 16 0.00 0.00
6:50 pm 18:50 Cloudy 30 -1 21 -6 69 69 WNW 16 26 30.06 1018 10 16 0.00 0.00
6:53 pm 18:53 Cloudy 31 -0.6 22 -5.6 69 69 WNW 14 22 30.08 1019 10 16 0.00 0.03
7:17 pm 19:17 Cloudy 30 -1.1 20 -6.7 66 66 WNW 20 31 30.09 1019 10 16 0.00 0.00
7:53 pm 19:53 Cloudy 28 -2.2 18 -7.8 66 66 NW 18 30 30.10 1019 10 16 0.00 0.00
8:53 pm 20:53 Cloudy 27 -2.8 17 -8.3 66 66 NW 18 30 30.14 1021 10 16 0.00 0.00
9:10 pm 21:10 Cloudy 27 -2.8 17 -8.3 66 66 NW 15 24 30.18 1022 10 16 0.00 0.00
9:53 pm 21:53 Cloudy with Light Snow 25 -3.9 15 -9.4 66 66 NW 16 26 30.16 1022 9 14 0.00 0.03
10:53 pm 22:53 Cloudy 24 -4.4 14 -10 65 65 NW 21 33 30.19 1022 10 16 0.00 0.03
11:53 pm 23:53 Mostly Cloudy 23 -5 13 -10.6 65 65 NW 14 22 30.20 1023 10 16 0.00 0.00

Powered by AerisWeather